User: anonymous   Login
Location: Bagnara
(41.0500°N, 14.7833°E)
Time: 19:40:19
(UTC+00:00)
Language:

Oscar 17 - Orbit

View from above orbital plane
View from above orbital plane
View from above satellite
View from above satellite

Ground track
Ground track

The orbit data is extracted from the following two-line orbital elements,

1 20440U 90005E   22024.51271580  .00000043  00000-0  32414-4 0  9998
2 20440  98.8001 353.8585 0009969 228.7801 242.7044 14.33279195672389
Epoch (UTC): 24 January 2022 12:18:18
Eccentricity: 0.0009969
inclination: 98.8001°
perigee height: 773 km
apogee height: 788 km
right ascension of ascending node: 353.8585°
argument of perigee: 228.7801°
revolutions per day: 14.33279195
mean anomaly at epoch: 242.7044°
orbit number at epoch: 67238

The dashed part of the orbit path shows where the satellite is in the earth's shadow,  

DLR